Regional Weather Roundup
Issued by NWS Green Bay, WI

Home | Current Version | Previous Version | Text Only | Print | Product List | Glossary On
Versions: 1 2 3 4 5 6 7 8 9 10 11 12 13 14 15 16 17 18 19 20 21 22 23 24 25 26 27 28 29 30 31 32 33 34 35 36 37 38 39 40 41 42 43 44 45 46 47 48 49 50
000
ASUS43 KGRB 060610
RWRGRB

NORTH-CENTRAL AND NORTHEAST WISCONSIN REGIONAL WEATHER ROUNDUP
NATIONAL WEATHER SERVICE GREEN BAY WI
1200 AM CST FRI MAR 06 2015

WIZ005-009-010>012-018-019-060700-
NORTH CENTRAL WISCONSIN

CITY           SKY/WX    TMP DP  RH WIND       PRES   REMARKS
IRONWOOD       PTCLDY     7  -6  56 SW15G21   30.18F WCI -11
MANITOWISH WTR PTCLDY    -1 -10  66 SW8       30.21F WCI -16
ARBOR VITAE    PTCLDY    -1 -10  66 S6        30.23F WCI -13
EAGLE RIVER    PTCLDY     0 -12  57 CALM      30.22F
LAND O LAKES   PTCLDY     0 -10  61 SW5       30.22F WCI -10
RHINELANDER    MOCLDY    -1 -11  62 SW9       30.25F WCI -16
PHILLIPS       PTCLDY     0  -8  70 S7        30.25F WCI -13
ANTIGO         MOCLDY    -4 -12  67 SW6       30.29F WCI -17
TOMAHAWK       MOCLDY    -7 -14  72 CALM      30.28F
MERRILL        CLOUDY    -3 -11  69 CALM      30.31F
$$

WIZ013-073-060700-
NORTHEAST WISCONSIN

CITY           SKY/WX    TMP DP  RH WIND       PRES   REMARKS
IRON MOUNTAIN  CLEAR      4 -11  50 W6        30.27F WCI  -7
MARINETTE      PTCLDY     5  -9  51 W3        30.36F
OCONTO         MOCLDY    -5 -12  71 SW3       30.39F
$$

WIZ017-030-035>037-045-060700-
CENTRAL WISCONSIN

CITY           SKY/WX    TMP DP  RH WIND       PRES   REMARKS
MEDFORD        PTCLDY     0  -8  68 SW7       30.28F WCI -13
WAUSAU         MOCLDY     2  -9  60 SW3       30.32F
MOSINEE        PTCLDY     0  -9  65 SW6       30.34F WCI -12
MARSHFIELD     PTCLDY     0  -9  65 SW7       30.33F WCI -13
WISC RAPIDS    PTCLDY     3  -8  60 SW7       30.39F WCI  -9
STEVENS POINT  CLEAR     -1  -9  67 SW3       30.37F
WAUPACA        PTCLDY     5  -6  59 SW3       30.40F
SHAWANO        PTCLDY     5  -7  57 CALM      30.38F
CLINTONVILLE   PTCLDY     5  -6  61 SW7       30.38F WCI  -7
$$

WIZ038-039-048-051-060700-
FOX VALLEY

CITY           SKY/WX    TMP DP  RH WIND       PRES   REMARKS
NWS GREEN BAY  PTCLDY     5  -7  57 SW6       30.41F WCI  -6
APPLETON       PTCLDY     7  -8  51 SW9       30.39F WCI  -7
OSHKOSH        PTCLDY     6  -6  57 SW6       30.42F WCI  -4
FOND DU LAC    PTCLDY     5  -5  63 SW8       30.43F WCI  -8
$$

WIZ022-050-052-060700-
EAST CENTRAL WISCONSIN

CITY           SKY/WX    TMP DP  RH WIND       PRES   REMARKS
STURGEON BAY   PTCLDY     7  -9  47 SW6       30.39F WCI  -3
MANITOWOC      PTCLDY     4  -4  69 SW6       30.43F WCI  -7
SHEBOYGAN      MOCLDY     2  -7  66 SW8       30.43F WCI -12
$$

LMZ563-521-522-541>543-060700-
LAKESHORE

STATION/POSITION TIME  TEMP    WIND        PRES    VSBY  WAVE
                       AIR SEA DIR/SP/G                  HT/PER
                 (UTC) (F)     (DEG/KT/KT) (MB)    (MI)  (FT/S)
SHEBOYGAN LKSHOR 0600    8     230/ 11/ 13 1032.7F
KEWAUNEE LKSHORE 0600    6     230/  6/ 12 1029.0S
NORTHPORT PIER   0600    8     270/  6/ 16 1028.1S
CHAMBERS ISLAND  0600    6     200/  7/ 11 1028.4S
MENOMINEE LKSHOR 0600    7     220/  8     1029.2F
$$



USA.gov is the U.S. government's official web portal to all federal, state and local government web resources and services.